[[{"header":{"parameterUnit":"m.s-1","parameterCategory":1,"la1":30.2991,"la2":30.254,"lo1":-89.0895,"lo2":-89.0444,"dy":0.0017,"dx":0.0017,"nx":28,"ny":28,"refTime":"2025-03-24T09:00:00:Z","depth":0,"parameterNumber":2,"parameterNumberName":"U-component_of_WINDS"},"data":[0,0,0,0,0,0,0,0,0,0,0,0,0,0,0,0,0,0,0,0,0,0,0,0,0,0,0,0,0,0,0,0,0,0,0,0,0,0,0,0,0,0,0,0,0,0,0,0,0,0,0,0,0,0,0,0,0,0,-0.4184,-0.4184,0,-0.4197,-0.4197,-0.4197,-0.4208,-0.4208,-0.4208,-0.4208,-0.4222,-0.4223,-0.4223,0,0,0,0,0,0,0,0,0,0,0,0,0,-0.4167,-0.4168,-0.4183,-0.4184,-0.4184,-0.4197,-0.4197,-0.4197,-0.4208,-0.4208,-0.4208,-0.4208,-0.4222,-0.4223,-0.4223,0,0,0,0,0,0,0,0,0,0,0,0,0,-0.4177,-0.4168,-0.4183,-0.4191,-0.4191,-0.4197,-0.4197,-0.4197,-0.4208,-0.4208,-0.4208,-0.4208,-0.4222,-0.4222,-0.4223,-0.4223,0,0,-0.4224,-0.4224,0,0,0,0,0,0,0,0,-0.4176,-0.4178,-0.4189,-0.419,-0.4191,-0.4201,-0.4197,-0.4206,-0.4208,-0.4202,-0.4208,-0.4208,-0.4215,-0.4216,-0.4218,-0.4223,-0.4224,-0.4224,-0.4225,-0.4225,-0.4225,0,0,0,0,0,0,0,-0.4176,-0.4177,-0.4189,-0.419,-0.4191,-0.4193,-0.4195,-0.4198,-0.4207,-0.4202,-0.4203,-0.4204,-0.4216,-0.4218,-0.4219,-0.4224,-0.4224,-0.4225,-0.4225,-0.4225,-0.423,-0.423,0,0,0,0,0,0,-0.4174,-0.4176,-0.4188,-0.4189,-0.4184,-0.4194,-0.4195,-0.4198,-0.4207,-0.4209,-0.4204,-0.4205,-0.4217,-0.4218,-0.4219,-0.422,-0.4225,-0.4225,-0.4225,-0.423,-0.423,-0.423,0,0,0,0,0,0,-0.4174,-0.4175,-0.4188,-0.4183,-0.4185,-0.4194,-0.4196,-0.4198,-0.42,-0.4209,-0.4211,-0.4205,-0.4217,-0.4219,-0.4222,-0.422,-0.4225,-0.4226,-0.423,-0.423,-0.423,-0.422,0,0,0,0,0,0,-0.4173,-0.4175,-0.4174,-0.4183,-0.4185,-0.419,-0.4196,-0.4198,-0.4201,-0.4202,-0.421,-0.4212,-0.4217,-0.4221,-0.4222,-0.4221,-0.4226,-0.423,-0.423,-0.423,-0.4221,-0.422,-0.4219,0,0,0,0,0,-0.4172,-0.4171,-0.4174,-0.4176,-0.4185,-0.419,-0.4191,-0.4198,-0.4201,-0.4201,-0.4206,-0.4211,-0.422,-0.4221,-0.4223,-0.4222,-0.423,-0.423,-0.423,-0.4221,-0.422,-0.4219,0,0,0,0,0,0,-0.4162,-0.4173,-0.4176,-0.4178,-0.4183,-0.4192,-0.4192,-0.4196,-0.4201,-0.4201,-0.421,-0.4212,-0.4214,-0.4218,-0.4219,-0.4222,-0.4226,-0.4226,-0.4219,-0.4218,-0.4217,-0.4216,-0.4226,0,0,0,0,0,-0.416,-0.4163,-0.4172,-0.4173,-0.4175,-0.4183,-0.4185,-0.419,-0.4196,-0.4198,-0.4204,-0.4209,-0.4213,-0.4216,-0.422,-0.4222,-0.4224,-0.4222,-0.4221,-0.422,-0.422,-0.4221,-0.422,-0.4229,-0.4229,-0.4229,0,0,-0.4156,-0.4162,-0.4163,-0.4171,-0.4175,-0.4178,-0.4185,-0.4187,-0.419,-0.4198,-0.4202,-0.4206,-0.4213,-0.4215,-0.4216,-0.4219,-0.4218,-0.4219,-0.4219,-0.4219,-0.4221,-0.422,-0.4219,-0.4228,-0.4229,-0.4229,0,0,-0.415,-0.4155,-0.4156,-0.416,-0.4167,-0.4173,-0.4173,-0.4181,-0.4184,-0.4188,-0.4194,-0.4197,-0.4204,-0.4209,-0.4212,-0.4208,-0.4213,-0.4209,-0.4205,-0.4206,-0.4205,-0.4205,-0.4203,-0.4203,-0.4209,-0.4209,-0.4209,0,-0.4144,-0.4149,-0.4156,-0.4158,-0.4162,-0.4169,-0.4171,-0.4175,-0.4183,-0.4185,-0.4187,-0.4196,-0.4201,-0.4205,-0.4204,-0.4206,-0.4207,-0.4208,-0.4205,-0.4204,-0.4204,-0.4203,-0.4202,-0.4209,-0.4209,-0.4209,-0.4209,0,-0.4141,-0.4144,-0.4144,-0.4152,-0.4155,-0.4157,-0.4164,-0.4167,-0.4171,-0.4177,-0.418,-0.4187,-0.4192,-0.4194,-0.4198,-0.4198,-0.4199,-0.4203,-0.4207,-0.4202,-0.4201,-0.4201,-0.4208,-0.4208,-0.4208,-0.4208,0,0,-0.4129,-0.4141,-0.414,-0.4144,-0.4152,-0.4155,-0.4157,-0.4163,-0.4165,-0.417,-0.4172,-0.4178,-0.4182,-0.4186,-0.4191,-0.4192,-0.4188,-0.4196,-0.4196,-0.4194,-0.4189,-0.4186,-0.4185,-0.4192,-0.4192,-0.4192,-0.4188,0,-0.4124,-0.4129,-0.4136,-0.4138,-0.4141,-0.4149,-0.4151,-0.4156,-0.4161,-0.4165,-0.417,-0.4174,-0.4179,-0.4181,-0.4183,-0.4189,-0.4188,-0.4189,-0.4194,-0.4194,-0.4192,-0.4185,-0.4182,-0.4178,-0.4188,-0.4188,-0.4188,0,-0.4119,-0.4124,-0.4127,-0.4135,-0.4137,-0.4138,-0.4144,-0.4147,-0.4154,-0.4157,-0.4162,-0.4167,-0.4171,-0.4174,-0.4179,-0.418,-0.4183,-0.4186,-0.4186,-0.4187,-0.4191,-0.4186,-0.4177,-0.4177,-0.4188,-0.4188,-0.4188,0,-0.411,-0.4118,-0.412,-0.4123,-0.4132,-0.4134,-0.4138,-0.4144,-0.4147,-0.4153,-0.4155,-0.416,-0.4163,-0.4168,-0.4175,-0.4177,-0.4179,-0.4183,-0.4182,-0.4182,-0.4182,-0.4182,-0.4174,-0.4184,-0.4184,-0.4184,-0.4184,0,-0.4105,-0.4106,-0.4116,-0.4118,-0.412,-0.4127,-0.4129,-0.4134,-0.414,-0.4143,-0.415,-0.4153,-0.4162,-0.4166,-0.4171,-0.4174,-0.4176,-0.4179,-0.418,-0.4178,-0.4178,-0.418,-0.4181,-0.4184,-0.4184,-0.4184,-0.4184,0,-0.4095,-0.4102,-0.4105,-0.4114,-0.4116,-0.4117,-0.4125,-0.4127,-0.4132,-0.4136,-0.4137,-0.4146,-0.4151,-0.4158,-0.4165,-0.4169,-0.4172,-0.4174,-0.4169,-0.417,-0.4169,-0.4169,-0.4162,-0.4162,-0.4171,-0.4171,-0.4171,0,-0.4091,-0.4092,-0.4101,-0.4103,-0.4107,-0.4111,-0.4114,-0.4122,-0.4125,-0.4132,-0.4133,-0.4139,-0.4144,-0.4151,-0.4158,-0.4164,-0.4166,-0.4164,-0.4167,-0.4165,-0.4167,-0.4166,-0.4167,-0.4163,-0.4163,-0.4163,-0.4163,0,-0.4082,-0.4086,-0.409,-0.4095,-0.4099,-0.4104,-0.4109,-0.411,-0.4119,-0.4122,-0.4127,-0.4131,-0.4138,-0.4144,-0.415,-0.4155,-0.416,-0.4161,-0.4161,-0.4159,-0.4157,-0.4158,-0.4167,-0.4161,-0.4162,-0.4162,-0.4162,-0.4162,-0.4075,-0.4077,-0.4083,-0.4088,-0.4092,-0.4097,-0.4099,-0.4105,-0.411,-0.4116,-0.412,-0.4125,-0.4132,-0.4142,-0.4146,-0.415,-0.4152,-0.4152,-0.4152,-0.4152,-0.4152,-0.4156,-0.4151,-0.4151,-0.4151,-0.4151,-0.4151,0,-0.4068,-0.4072,-0.4076,-0.4083,-0.4087,-0.4091,-0.4097,-0.41,-0.4104,-0.411,-0.4114,-0.412,-0.4126,-0.4133,-0.4139,-0.4141,-0.4144,-0.4142,-0.4142,-0.4143,-0.4149,-0.4148,-0.414,-0.414,-0.414,-0.414,-0.414,-0.414,-0.4064,-0.4067,-0.4071,-0.4076,-0.4081,-0.4086,-0.4089,-0.4093,-0.4098,-0.4104,-0.4109,-0.4114,-0.412,-0.4127,-0.4132,-0.4134,-0.4136,-0.4134,-0.4137,-0.4142,-0.4143,-0.4144,-0.4144,-0.4134,-0.4134,-0.4131,-0.4131,-0.4131]},{"header":{"parameterUnit":"m.s-1","parameterCategory":1,"la1":30.2991,"la2":30.254,"lo1":-89.0895,"lo2":-89.0444,"dy":0.0017,"dx":0.0017,"nx":28,"ny":28,"refTime":"2025-03-24T09:00:00:Z","depth":0,"parameterNumber":3,"parameterNumberName":"V-component_of_WINDS"},"data":[0,0,0,0,0,0,0,0,0,0,0,0,0,0,0,0,0,0,0,0,0,0,0,0,0,0,0,0,0,0,0,0,0,0,0,0,0,0,0,0,0,0,0,0,0,0,0,0,0,0,0,0,0,0,0,0,0,0,3.317,3.317,0,3.3159,3.3159,3.3159,3.3082,3.308,3.3078,3.3077,3.3065,3.3066,3.3068,0,0,0,0,0,0,0,0,0,0,0,0,0,3.3125,3.3126,3.317,3.317,3.317,3.3159,3.3159,3.3159,3.3082,3.308,3.3078,3.3076,3.3065,3.3066,3.3068,0,0,0,0,0,0,0,0,0,0,0,0,0,3.3133,3.3127,3.317,3.3131,3.3127,3.3159,3.3159,3.3159,3.3083,3.308,3.3077,3.3075,3.3064,3.3066,3.3068,3.3138,0,0,3.3075,3.3076,0,0,0,0,0,0,0,0,3.3132,3.3134,3.3136,3.3133,3.3129,3.3119,3.3139,3.3152,3.3084,3.31,3.3077,3.3073,3.3085,3.3086,3.309,3.3137,3.3137,3.3075,3.3076,3.3077,3.3078,0,0,0,0,0,0,0,3.3132,3.3134,3.3166,3.3137,3.3132,3.3113,3.3111,3.3141,3.3108,3.3098,3.3092,3.3092,3.3083,3.3088,3.3089,3.3137,3.3075,3.3077,3.3078,3.3079,3.3243,3.3246,0,0,0,0,0,0,3.3137,3.3134,3.3166,3.3165,3.3124,3.3116,3.3114,3.3125,3.3108,3.3102,3.3095,3.3089,3.3085,3.3086,3.3088,3.317,3.3077,3.3079,3.3081,3.324,3.3244,3.3247,0,0,0,0,0,0,3.3136,3.314,3.3167,3.3148,3.315,3.312,3.3133,3.3127,3.3131,3.3105,3.3099,3.3106,3.3083,3.3085,3.3127,3.3169,3.308,3.3082,3.3236,3.3241,3.3245,3.3334,0,0,0,0,0,0,3.3135,3.3141,3.3167,3.315,3.3152,3.3205,3.3136,3.3128,3.3135,3.3128,3.3114,3.3109,3.3081,3.3124,3.3129,3.317,3.3084,3.3233,3.3239,3.3244,3.3327,3.3341,3.3353,0,0,0,0,0,3.3134,3.3191,3.3168,3.3173,3.3184,3.3208,3.3209,3.3176,3.3139,3.3165,3.3149,3.311,3.3163,3.3129,3.3134,3.3176,3.323,3.3237,3.3243,3.3322,3.3339,3.3353,0,0,0,0,0,0,3.3213,3.3188,3.3163,3.3216,3.3215,3.3195,3.3227,3.3195,3.3203,3.3196,3.3154,3.3152,3.32,3.3192,3.3154,3.3244,3.319,3.3198,3.3248,3.3263,3.3276,3.3278,3.3086,0,0,0,0,0,3.3237,3.326,3.3236,3.3286,3.3287,3.3257,3.3267,3.3241,3.3238,3.3237,3.3223,3.3222,3.3238,3.325,3.3264,3.3325,3.3322,3.3357,3.337,3.3381,3.3389,3.3423,3.3439,3.327,3.327,3.3269,0,0,3.3287,3.3276,3.3292,3.3302,3.3298,3.3322,3.3257,3.3285,3.3303,3.3241,3.328,3.327,3.3266,3.3318,3.3341,3.3313,3.3435,3.339,3.3398,3.3401,3.3432,3.3448,3.3462,3.3274,3.3273,3.3273,0,0,3.339,3.3383,3.3425,3.3423,3.3418,3.3398,3.3408,3.3393,3.3385,3.3423,3.3378,3.3398,3.3427,3.3427,3.343,3.3535,3.35,3.354,3.3608,3.3642,3.3655,3.3667,3.3706,3.372,3.3548,3.3548,3.3548,0,3.3452,3.3487,3.345,3.3482,3.3489,3.3434,3.3477,3.3476,3.3476,3.3482,3.345,3.3487,3.348,3.3533,3.3558,3.3562,3.3573,3.3542,3.3656,3.3667,3.3678,3.3715,3.3729,3.3553,3.3553,3.3552,3.3552,0,3.3565,3.359,3.3624,3.3627,3.3636,3.3673,3.3643,3.3657,3.3631,3.3615,3.3656,3.3645,3.3657,3.3667,3.3642,3.3717,3.37,3.3663,3.3609,3.37,3.3734,3.3748,3.3561,3.3559,3.3557,3.3556,0,0,3.3718,3.3701,3.3714,3.3715,3.3707,3.3725,3.376,3.3772,3.3786,3.3788,3.3817,3.3843,3.3809,3.3813,3.3787,3.3817,3.3903,3.3776,3.3775,3.3802,3.3988,3.4017,3.4034,3.3879,3.3881,3.3883,3.3989,0,3.3819,3.3878,3.3847,3.391,3.3934,3.3883,3.3914,3.3912,3.3898,3.3916,3.39,3.392,3.3873,3.3876,3.3902,3.3887,3.394,3.3878,3.3907,3.3908,3.3912,3.4051,3.4082,3.4182,3.4002,3.4004,3.4005,0,3.3944,3.3953,3.4019,3.4008,3.4017,3.4045,3.4054,3.4072,3.4069,3.4057,3.4062,3.4029,3.4063,3.4008,3.4055,3.4015,3.4024,3.4018,3.4021,3.4024,3.3964,3.406,3.4213,3.4229,3.4026,3.4024,3.4022,0,3.4052,3.408,3.4124,3.4126,3.4113,3.4135,3.413,3.4125,3.4134,3.4142,3.4149,3.416,3.4167,3.4177,3.4149,3.4111,3.42,3.4142,3.4192,3.4193,3.4215,3.4214,3.4373,3.4218,3.4218,3.4217,3.4217,0,3.4169,3.4212,3.4172,3.42,3.4247,3.421,3.4258,3.4248,3.4244,3.4269,3.4225,3.4249,3.4209,3.4229,3.4207,3.4251,3.4254,3.4245,3.4239,3.4251,3.4252,3.4258,3.4251,3.4221,3.422,3.422,3.4219,0,3.4298,3.4273,3.4318,3.4302,3.43,3.4335,3.4322,3.4347,3.433,3.4362,3.4368,3.4341,3.4363,3.4335,3.4354,3.4339,3.44,3.4382,3.4401,3.4397,3.4449,3.4446,3.4619,3.4641,3.447,3.4472,3.4473,0,3.4375,3.4407,3.4396,3.441,3.4409,3.4431,3.4441,3.4407,3.4419,3.442,3.4445,3.4463,3.4476,3.4513,3.4496,3.4511,3.4494,3.4554,3.4496,3.4507,3.4498,3.4497,3.4501,3.4567,3.4569,3.457,3.4572,0,3.4515,3.4502,3.4519,3.4532,3.4546,3.4554,3.4559,3.4573,3.4536,3.4553,3.4575,3.4585,3.4605,3.4625,3.4635,3.463,3.4596,3.459,3.4603,3.4616,3.4626,3.4623,3.4436,3.4587,3.4585,3.4584,3.4583,3.4583,3.4622,3.465,3.4647,3.4667,3.4668,3.4674,3.4697,3.4684,3.4702,3.4716,3.4694,3.4723,3.472,3.4731,3.473,3.4752,3.4726,3.4744,3.4749,3.4755,3.4764,3.4621,3.4753,3.4753,3.4753,3.4752,3.4752,0,3.4762,3.4758,3.4778,3.4787,3.4804,3.4769,3.4774,3.479,3.4816,3.4816,3.4831,3.4857,3.4876,3.4861,3.4876,3.4897,3.4882,3.4903,3.4902,3.4902,3.4785,3.4773,3.4915,3.4915,3.4915,3.4915,3.4915,3.4915,3.4837,3.4883,3.4869,3.4914,3.4909,3.4938,3.4944,3.4949,3.495,3.4982,3.4998,3.4988,3.4982,3.4997,3.5014,3.5008,3.5017,3.5044,3.5034,3.4925,3.491,3.4894,3.4883,3.5046,3.5046,3.5149,3.515,3.5151]}]]